Location: Haut Kerinec
(48.0623°N, 4.4081°W)
Time: 22:37:28
(UTC+00:00)

STARLINK-1254 - Pass Details

Date: 08 October 2020
Orbit: 548 x 551 km, 53.0° (Epoch: 26 October)

Event Time Altitude Azimuth Distance (km) Brightness Sun altitude
Rises 19:14:02 0° 212° (SSW) 2,702 7.5 -16.2°
Reaches altitude 10° 19:16:25 10° 202° (SSW) 1,813 6.4 -16.6°
Maximum altitude 19:20:05 32° 139° (SE) 963 4.4 -17.2°
Enters shadow 19:20:14 31° 134° (SE) 965 4.4 -17.2°
